Home   Weather   Corpus Christi   Past weeks

Flag for USA Past Weather in Corpus Christi, Texas, USA — Yesterday and Last 2 Weeks

Now
57 °F

Drizzle. Fog.


Feels Like: 53 °F
Forecast: 61 / 71 °F
Wind: 17 mph from Northwest

Location: Corpus Christi International Airport

Current Time: Jan 18, 2017 at 8:25:59 am

Latest Report: Jan 18, 2017 at 7:51 am


Visibility: 1 mi

Pressure: 30.03 "Hg

Humidity: 100%

Dew Point: 57 °F

Location of Corpus ChristiLocation

Past Weather in Corpus Christi — Graph

°F

Corpus Christi Temperature Yesterday

Maximum temperature yesterday: 79 °F (at 2:03 pm)
Minimum temperature yesterday: 69 °F (at 12:34 am)
Average temperature yesterday: 73 °F

High & Low Weather Summary for the Past Weeks

 TemperatureHumidityPressure
High84 °F (Jan 3, 3:51 pm)100% (Jan 10, 3:57 am)30.78 "Hg (Jan 10, 3:57 am)
Low26 °F (Jan 7, 6:51 am)23% (Jan 7, 4:51 pm)29.78 "Hg (Jan 5, 3:51 pm)
Average63 °F77%30.12 "Hg
* Reported Jan 3 6:51 am — Jan 18 6:51 am, Corpus Christi, Weather by CustomWeather, © 2017

Note: Actual official high and low records may vary slightly from our data, if they occured in-between our weather recording intervals... More about our weather records

Advertising

Corpus Christi Weather History for the Previous 24 Hours

Scroll right to see more
 ConditionsComfort  
Time TempWeatherWind HumidityBarometerVisibility
6:51 am
Wed, Jan 18
60 °FDrizzle. Fog.14 mph100%30.00 "Hg2 mi
6:18 am62 °FLight rain. Fog.12 mph100%29.99 "Hg4 mi
5:51 am65 °FRain. Fog.7 mph100%29.98 "Hg2 mi
5:35 am66 °FFog.3 mph100%29.98 "Hg2 mi
5:20 am70 °FFog.12 mph100%29.97 "Hg3 mi
4:51 am70 °FFog.10 mph100%29.97 "Hg2 mi
3:51 am71 °FFog.12 mph96%29.98 "Hg5 mi
2:51 am71 °FFog.13 mph100%29.97 "Hg5 mi
1:51 am71 °FFog.12 mph100%29.98 "Hg5 mi
12:51 am71 °FFog.16 mph100%29.98 "Hg5 mi
12:37 am72 °FFog.16 mph97%29.99 "Hg6 mi
11:51 pm
Tue, Jan 17
72 °FFog.14 mph100%29.99 "Hg6 mi
10:51 pm73 °FLight rain. Fog.15 mph97%29.99 "Hg4 mi
9:51 pm73 °FFog.18 mph97%29.98 "Hg6 mi
8:51 pm74 °FMostly cloudy.16 mph94%29.98 "Hg7 mi
7:51 pm74 °FMostly cloudy.17 mph91%29.97 "Hg7 mi
6:51 pm74 °FMostly cloudy.16 mph91%29.94 "Hg7 mi
5:51 pm74 °FMostly cloudy.18 mph91%29.93 "Hg10 mi
4:51 pm75 °FMostly cloudy.17 mph85%29.93 "Hg10 mi
4:17 pm76 °FMostly cloudy.18 mph82%29.95 "Hg10 mi
3:51 pm77 °FMostly cloudy.18 mph79%29.94 "Hg10 mi
3:16 pm78 °FCloudy.23 mph76%29.91 "Hg10 mi
2:51 pm79 °FCloudy.26 mph74%29.91 "Hg10 mi
2:20 pm78 °FCloudy.24 mph76%29.93 "Hg10 mi
2:03 pm79 °FCloudy.21 mph74%29.95 "Hg10 mi
1:51 pm77 °FCloudy.21 mph79%29.94 "Hg10 mi
12:51 pm77 °FCloudy.21 mph79%29.96 "Hg10 mi
11:51 am77 °FMostly cloudy.22 mph82%30.00 "Hg10 mi
10:51 am76 °FMostly cloudy.16 mph85%30.03 "Hg10 mi
10:06 am75 °FCloudy.15 mph88%30.05 "Hg10 mi
9:51 am74 °FMostly cloudy.16 mph91%30.03 "Hg10 mi
8:51 am72 °FMostly cloudy.12 mph97%30.02 "Hg9 mi
8:25 am71 °FFog.14 mph96%30.01 "Hg5 mi
Weather by CustomWeather, © 2017

See weather overviewHow to use our weather pages